Skip to main content

Graciosa / Serra das Fontes (DROTRH)

ID 11217430 · 39.0672, -28.0038 map

Latest reading · 2026-05-09 18:00 (Europe/Lisbon)

Temperature
13.8 °C
Humidity
60 %
Pressure
Precipitation
0.0 mm
Radiation
1,333 W/m²
Wind speed
20.5 km/h
Wind direction
NE · North-east

24-hour history

Time (Europe/Lisbon) Temp Humidity Pressure Rain Wind Dir
2026-05-09 18:00 13.8 °C 60 % 0.0 mm 20.5 km/h NE
2026-05-09 17:00 13.9 °C 63 % 0.0 mm 20.9 km/h NE
2026-05-09 16:00 13.2 °C 73 % 0.0 mm 27.0 km/h NE
2026-05-09 15:00 13.1 °C 80 % 0.0 mm 30.6 km/h NE
2026-05-09 14:00 12.1 °C 72 % 0.0 mm 28.4 km/h NE
2026-05-09 13:00 12.2 °C 48 % 0.0 mm 30.6 km/h N
2026-05-09 12:00 11.6 °C 45 % 0.0 mm 34.6 km/h NE
2026-05-09 11:00 11.3 °C 0.0 mm 26.6 km/h N
2026-05-09 10:00 10.7 °C 0.0 mm 27.0 km/h N
2026-05-09 09:00 10.2 °C 0.0 mm 27.7 km/h NE
2026-05-09 08:00 10.0 °C 49 % 0.0 mm 28.8 km/h NE
2026-05-09 07:00 10.3 °C 51 % 0.0 mm 26.3 km/h NE
2026-05-09 06:00 10.0 °C 67 % 0.1 mm 26.3 km/h NE
2026-05-09 05:00 10.1 °C 69 % 0.3 mm 23.0 km/h NE
2026-05-09 04:00 10.9 °C 46 % 0.0 mm 20.2 km/h NE
2026-05-09 03:00 11.1 °C 41 % 0.0 mm 24.8 km/h NE
2026-05-09 02:00 10.9 °C 0.0 mm 22.0 km/h NE
2026-05-09 01:00 11.6 °C 51 % 0.0 mm 24.5 km/h NE
2026-05-09 00:00 11.7 °C 65 % 0.0 mm 25.9 km/h NE
2026-05-08 23:00 11.4 °C 87 % 0.0 mm 25.2 km/h NE
2026-05-08 22:00 11.9 °C 84 % 0.0 mm 27.0 km/h NE
2026-05-08 21:00 12.9 °C 78 % 0.0 mm 24.5 km/h N
2026-05-08 20:00 13.9 °C 79 % 0.0 mm 24.8 km/h N